www.pogodaiklimat.ru

Погода и климат >> Архив погоды >> Великобритания >> Варкоп


ПОГОДА в Варкопе

  • Прогноз погоды в Варкопе
  • Монитор погоды в Варкопе

АРХИВ ПОГОДЫ в Варкопе

Время (UTC), дата Ветер
(напр.,м/с)
 
Видим.   Явления Облачность Т
(С)
Тd
(С)
f
(%)
Тe
(С)
Тes
(С)
Комфортность P
(гПа)
Po
(гПа)
Тmin
(С)
Tmax
(С)
R
(мм)
R24
(мм)
S
(см)
16 9.06 З 5 25 км н/о +13.7 +4.5 54 +12 +12 1017.7 990.6
17 9.06 ЮЗ 4 50 км н/о +13.7 +4.7 55 +12 +12 1017.7 990.6
18 9.06 З 4 45 км н/о +13.4 +4.1 53 +12 +12 1018.0 990.8 +14.7
19 9.06 З 4 40 км н/о +12.4 +3.4 54 +11 +11 1018.3 991.0
20 9.06 ЮЗ 3 50 км н/о +10.7 +4.0 63 +9 +9 1018.6 991.2
21 9.06 Ю 2 50 км н/о +8.7 +4.1 73 +7 +7 1019.1 991.5
22 9.06 В 1 50 км н/о +5.4 +2.9 84 +4 +4 1019.6 991.7
23 9.06 В 3 50 км н/о +5.5 +3.6 88 +2 +2 1019.7 991.7
00 10.06 ЮВ 2 50 км н/о +4.4 +2.8 89 +2 +2 1019.8 991.7
01 10.06 В 1 50 км н/о +4.1 +2.8 91 +3 +3 1019.6 991.5
02 10.06 В 1 50 км н/о +4.7 +3.7 93 +3 +3 1019.4 991.4
03 10.06 В 1 50 км н/о +4.9 +2.8 86 +4 +4 1019.2 991.2
04 10.06 З 1 50 км н/о +3.4 +2.2 92 +3 +3 1019.4 991.2
05 10.06 СВ 2 50 км н/о +4.9 +3.9 93 +3 +3 1019.2 991.2
06 10.06 ЮВ 1 40 км н/о +7.4 +4.9 84 +8 +8 1018.9 991.2 +2.5
07 10.06 З 1 35 км н/о +8.5 +5.7 83 +9 +9 1018.8 991.2
08 10.06 СЗ 2 35 км н/о +10.0 +5.8 75 +9 +9 1019.0 991.5
09 10.06 СЗ 3 50 км н/о +12.0 +7.2 72 +11 +11 1018.7 991.4
10 10.06 С 2 35 км н/о +12.0 +7.5 74 +11 +11 1018.7 991.4
11 10.06 С 2 40 км слаб. ливневой дождь н/о +13.0 +7.7 70 +13 +13 1018.6 991.4
12 10.06 СЗ 2 50 км в посл. час дождь н/о +13.9 +7.3 64 +14 +14 1018.2 991.0 0.0
13 10.06 С 1 50 км н/о +14.8 +6.2 56 +15 +15 1018.0 991.0
14 10.06 СВ 5 45 км н/о +15.0 +6.2 56 +14 +14 1017.7 990.7
15 10.06 В 6 50 км н/о +16.2 +5.8 50 +15 +15 1017.3 990.4
16 10.06 В 9 45 км н/о +15.5 +5.3 51 +14 +14 1017.4 990.5
17 10.06 В 8 50 км н/о +15.0 +5.1 52 +13 +13 1017.9 990.9
18 10.06 В 6 45 км н/о +14.8 +5.9 55 +13 +13 1018.5 991.4 +16.4 0.0
19 10.06 СВ 8 45 км н/о +13.9 +5.5 57 +12 +12 1018.6 991.5
20 10.06 СВ 6
{13}
50 км н/о +12.6 +5.8 63 +10 +10 1019.1 991.8
21 10.06 С 3 50 км н/о +11.0 +6.8 75 +9 +9 1019.8 992.4
22 10.06 СВ 9 50 км н/о +10.1 +6.5 78 +6 +6 1019.6 992.1
23 10.06 СВ 14
{17}
50 км н/о +10.1 +6.9 81 +5 +5 1019.3 991.8
00 11.06 СВ 13
{16}
50 км н/о +10.0 +6.7 80 +5 +5 1019.2 991.7
01 11.06 СВ 11
{16}
50 км н/о +9.7 +6.8 82 +5 +5 1019.3 991.7
02 11.06 СВ 7-12
{16}
50 км н/о +9.1 +5.7 79 +5 +5 1019.6 992.0
03 11.06 СВ 8
{13}
50 км н/о +8.5 +5.2 80 +4 +4 1019.6 991.9
04 11.06 СВ 10-15
{15}
50 км н/о +8.3 +5.1 80 +3 +3 1019.5 991.8
05 11.06 СВ 17-23
{23}
50 км н/о +8.4 +5.1 80 +2 +2 1018.3 990.7
06 11.06 СВ 20-25
{25}
50 км н/о +8.6 +5.0 78 +2 +2 1017.6 990.0 +8.2
07 11.06 СВ 17-23
{25}
45 км н/о +9.1 +4.8 74 +3 +3 1018.2 990.6
08 11.06 С 5-11
{23}
50 км н/о +9.9 +5.2 73 +7 +7 1019.6 992.0
09 11.06 С 7-13
{15}
50 км н/о +9.5 +5.7 77 +6 +6 1019.6 992.1
10 11.06 СВ 8-13
{15}
45 км н/о +10.4 +5.9 74 +7 +7 1019.6 992.1
11 11.06 СВ 4
{14}
50 км н/о +10.4 +5.5 72 +8 +8 1019.9 992.4
12 11.06 С 6
{13}
50 км н/о +10.0 +4.9 71 +7 +7 1020.2 992.7
13 11.06 С 6-13
{13}
50 км н/о +11.0 +6.1 72 +8 +8 1019.7 992.2
14 11.06 С 7-12
{16}
50 км н/о +11.2 +5.5 68 +8 +8 1019.3 991.9
15 11.06 СВ 9
{14}
45 км н/о +10.7 +5.9 72 +7 +7 1019.3 991.9
16 11.06 С 4
{14}
50 км н/о +10.3 +5.5 72 +8 +8 1019.7 992.2
17 11.06 С 4 19 км слаб. морось с дождем н/о +9.3 +6.5 83 +7 +7 1019.2 991.6
18 11.06 СВ 9
{14}
45 км слаб. дождь н/о +9.3 +6.3 82 +5 +5 1018.7 991.1 +12.0 0.8
19 11.06 СВ 9
{14}
35 км слаб. дождь н/о +9.3 +6.6 83 +5 +5 1018.6 991.0
20 11.06 СВ 12
{17}
50 км в посл. час дождь н/о +9.3 +6.2 81 +4 +4 1017.8 990.3
21 11.06 СВ 6
{17}
40 км слаб. ливневой дождь н/о +9.0 +6.0 81 +5 +5 1018.6 991.1
22 11.06 СВ 11-16
{16}
50 км в посл. час дождь н/о +9.0 +5.8 80 +4 +4 1017.7 990.1
23 11.06 СЗ 6-15
{16}
50 км н/о +9.1 +5.6 79 +5 +5 1017.8 990.2
00 12.06 СВ 6-13
{14}
19 км слаб. ливневой дождь н/о +8.6 +6.0 84 +5 +5 1017.2 989.6 0.8
01 12.06 СВ 12
{17}
30 км слаб. дождь н/о +8.8 +6.4 85 +3 +3 1015.7 988.2
02 12.06 СВ 13-19
{19}
45 км в посл. час дождь н/о +8.6 +6.0 84 +3 +3 1014.6 987.1
03 12.06 СВ 7
{17}
40 км слаб. ливневой дождь н/о +8.8 +6.0 83 +5 +5 1014.9 987.4
04 12.06 С 7 50 км в посл. час дождь н/о +9.0 +6.1 82 +5 +5 1014.2 986.7
05 12.06 СВ 12-17
{18}
35 км н/о +9.3 +6.6 83 +4 +4 1012.9 985.5
06 12.06 СВ 11-16
{21}
21 км н/о +9.5 +7.6 88 +4 +4 1012.9 985.5 +8.5 2
07 12.06 С 5
{14}
35 км н/о +11.0 +7.9 81 +8 +8 1012.8 985.6
08 12.06 С 4-9
{15}
50 км н/о +11.0 +7.6 80 +9 +9 1012.6 985.4
09 12.06 С 4-9
{13}
50 км н/о +10.8 +7.9 82 +9 +9 1013.2 986.0
10 12.06 С 5-10
{19}
35 км н/о +12.0 +8.3 78 +10 +10 1012.8 985.6
11 12.06 СВ 12-19
{20}
40 км н/о +12.4 +8.6 78 +9 +9 1011.0 983.9
12 12.06 СВ 19-25
{25}
27 км н/о +12.1 +9.1 82 +7 +7 1010.0 983.0
13 12.06 СВ 17-24
{25}
30 км н/о +12.5 +9.2 80 +8 +8 1009.2 982.2
14 12.06 С 6-12
{23}
45 км н/о +12.5 +9.0 79 +10 +10 1010.7 983.6
15 12.06 З 4 50 км в посл. час дождь н/о +11.8 +8.9 82 +10 +10 1010.6 983.5
16 12.06 СЗ 4 40 км н/о +11.8 +9.1 84 +10 +10 1010.5 983.4
17 12.06 СВ 5 14 км н/о +11.9 +10.0 88 +9 +9 1009.7 982.6
18 12.06 С 4 25 км слаб. ливневой дождь н/о +11.7 +9.6 87 +9 +9 1009.4 982.4 +12.9 0.0
19 12.06 СВ 6 12 км дождь н/о +11.7 +10.2 91 +9 +9 1009.2 982.2
20 12.06 СВ 6 50 км в посл. час дождь н/о +11.7 +10.0 89 +9 +9 1009.0 981.9
21 12.06 СЗ 4 50 км н/о +10.8 +9.4 91 +8 +8 1008.5 981.4
22 12.06 С 4 22 км слаб. морось с дождем н/о +11.0 +9.4 90 +8 +8 1007.7 980.6
23 12.06 СВ 9
{14}
29 км слаб. ливневой дождь н/о +10.9 +8.8 87 +7 +7 1007.0 979.9
00 13.06 СВ 10
{15}
19 км слаб. дождь н/о +10.6 +8.7 88 +6 +6 1006.4 979.3 2
01 13.06 СВ 9
{17}
12 км дождь н/о +10.6 +8.6 87 +6 +6 1005.9 978.8
02 13.06 СВ 10
{16}
9000 м дождь н/о +9.8 +7.9 88 +5 +5 1004.9 977.8
03 13.06 СВ 12-19
{19}
50 км слаб. дождь н/о +9.7 +7.6 87 +5 +5 1004.0 976.9
04 13.06 СВ 9-16
{16}
23 км в посл. час дождь н/о +9.6 +7.3 86 +5 +5 1003.7 976.6
05 13.06 С 4
{13}
45 км слаб. ливневой дождь н/о +9.5 +7.1 85 +7 +7 1004.2 977.0
06 13.06 СВ 10-15
{15}
30 км слаб. дождь н/о +9.1 +6.7 85 +4 +4 1003.4 976.2 +8.9 7
07 13.06 СВ 13
{18}
14 км дождь н/о +8.5 +6.4 87 +3 +3 1003.0 975.8
08 13.06 СВ 13
{18}
6000 м дождь н/о +8.1 +6.1 87 +2 +2 1002.8 975.6
09 13.06 СВ 12-17
{19}
11 км слаб. дождь н/о +8.1 +6.1 87 +2 +2 1002.6 975.3
10 13.06 СВ 8-15
{18}
19 км слаб. дождь н/о +8.2 +6.1 87 +3 +3 1002.9 975.7
11 13.06 С 6 29 км слаб. дождь н/о +8.7 +6.7 87 +5 +5 1003.0 975.8
12 13.06 С 5 30 км слаб. дождь н/о +8.3 +5.9 85 +5 +5 1003.1 975.9 7
13 13.06 СЗ 3 17 км слаб. дождь н/о +9.1 +7.1 87 +7 +7 1002.9 975.7
14 13.06 З 2 20 км слаб. дождь н/о +9.5 +7.4 87 +8 +8 1002.7 975.6
15 13.06 СЗ 5 20 км слаб. дождь н/о +8.8 +7.8 93 +5 +5 1002.9 975.7
16 13.06 СЗ 4 24 км слаб. дождь н/о +9.3 +8.3 93 +6 +6 1002.7 975.6
17 13.06 СЗ 3 50 км в посл. час дождь н/о +9.0 +7.2 88 +7 +7 1002.8 975.6
18 13.06 З 3 18 км н/о +8.9 +7.4 90 +7 +7 1002.9 975.7 +9.7 10
19 13.06 СЗ 2 50 км н/о +8.8 +7.2 90 +7 +7 1003.2 976.0
20 13.06 ЮЗ 2 45 км н/о +8.6 +7.3 92 +7 +7 1003.4 976.2
21 13.06 Ю 2 3200 м слаб. морось н/о +7.7 +7.2 97 +6 +6 1004.2 976.9
22 13.06 ЮВ 3 15 км в посл. час дождь н/о +7.6 +7.4 99 +4 +4 1004.5 977.1
23 13.06 Ю 3 50 км в посл. час морось н/о +7.7 +6.9 95 +5 +5 1004.6 977.2
00 14.06 Ю 2 35 км в посл. час морось н/о +7.3 +7.0 98 +5 +5 1004.8 977.5 0.4
01 14.06 ЮВ 2 45 км н/о +7.6 +6.9 95 +6 +6 1004.6 977.3
02 14.06 Ю 2 18 км н/о +7.4 +6.9 97 +5 +5 1004.4 977.1
03 14.06 Ю 4 40 км н/о +7.5 +6.4 93 +4 +4 1004.5 977.1
04 14.06 Ю 1 13 км н/о +6.2 +5.4 95 +5 +5 1004.9 977.4
05 14.06 ЮВ 2 50 км н/о +7.3 +6.0 91 +5 +5 1005.1 977.7
06 14.06 ЮВ 4 40 км н/о +8.1 +6.4 89 +5 +5 1005.2 977.9 +6.0 0.4
07 14.06 ЮВ 3 12 км в посл. час дождь н/о +8.0 +6.8 92 +5 +5 1005.3 977.9
08 14.06 ЮВ 3 14 км слаб. дождь н/о +8.0 +6.3 89 +5 +5 1005.6 978.3
09 14.06 ЮВ 4 28 км слаб. дождь н/о +8.6 +7.2 91 +6 +6 1005.9 978.6
10 14.06 Ю 3 45 км в посл. час дождь н/о +9.7 +7.2 84 +8 +8 1006.0 978.8
11 14.06 З 2 50 км в посл. час дождь н/о +10.4 +7.8 84 +9 +9 1006.3 979.2
12 14.06 ЮЗ 4 35 км н/о +11.6 +7.2 74 +9 +9 1006.4 979.4 2
13 14.06 З 4 7000 м слаб. ливневой дождь н/о +9.9 +8.0 88 +7 +7 1007.3 980.1
14 14.06 ЮЗ 3 50 км в посл. час дождь н/о +12.8 +7.8 72 +12 +12 1007.0 980.1
15 14.06 ЮЗ 5 50 км н/о +12.4 +5.7 64 +10 +10 1007.7 980.7
16 14.06 ЮЗ 3 50 км н/о +12.8 +5.4 61 +12 +12 1007.6 980.7
17 14.06 СЗ 1 40 км н/о +13.1 +5.7 61 +14 +14 1007.7 980.8
18 14.06 В 1 45 км н/о +13.3 +6.1 62 +14 +14 1007.8 980.9 +13.5 2
19 14.06 Ю 4 50 км н/о +13.6 +7.9 68 +12 +12 1007.7 980.8
20 14.06 ЮВ 4 50 км н/о +12.6 +8.3 75 +11 +11 1008.1 981.1
21 14.06 ЮВ 5 50 км н/о +12.1 +9.3 83 +10 +10 1008.4 981.4
22 14.06 ЮВ 4 50 км н/о +11.5 +9.0 85 +9 +9 1008.8 981.7
23 14.06 ЮВ 4 50 км н/о +10.3 +8.0 86 +8 +8 1009.2 982.0
00 15.06 ЮВ 4 50 км н/о +10.4 +8.2 86 +8 +8 1008.9 981.8
01 15.06 ЮВ 5 50 км н/о +10.8 +8.5 86 +8 +8 1009.1 981.9
02 15.06 ЮВ 4 50 км н/о +10.8 +8.4 85 +8 +8 1009.0 981.9
03 15.06 ЮВ 4 45 км н/о +10.9 +8.8 87 +8 +8 1008.7 981.6
04 15.06 ЮВ 4 40 км н/о +10.3 +7.9 85 +8 +8 1008.6 981.4
05 15.06 ЮВ 4 45 км н/о +10.7 +7.6 81 +8 +8 1008.5 981.4
06 15.06 ЮВ 5 50 км н/о +11.3 +8.0 80 +9 +9 1008.3 981.3 +9.8
07 15.06 ЮВ 5 40 км н/о +12.4 +8.9 79 +10 +10 1008.1 981.1
08 15.06 Ю 6 50 км н/о +13.1 +8.1 72 +11 +11 1008.3 981.4
09 15.06 Ю 6 40 км н/о +13.7 +7.7 67 +12 +12 1008.3 981.4
10 15.06 Ю 5 45 км н/о +12.7 +8.9 78 +11 +11 1008.7 981.7
11 15.06 Ю 5 50 км н/о +12.8 +9.1 78 +11 +11 1008.9 982.0
12 15.06 Ю 6 50 км н/о +13.6 +10.0 79 +12 +12 1008.9 982.0
13 15.06 Ю 6 40 км н/о +14.1 +9.5 74 +12 +12 1008.5 981.7
14 15.06 Ю 4 10 км слаб. ливневой дождь н/о +12.0 +11.0 94 +10 +10 1009.4 982.3
15 15.06 ЮВ 2 5000 м дождь н/о +11.5 +10.0 90 +11 +11 1009.9 982.8
16 15.06 ЮЗ 1 30 км слаб. дождь н/о +11.2 +8.6 84 +11 +11 1010.1 983.0
17 15.06 ЮВ 1 50 км слаб. дождь н/о +11.2 +7.6 78 +11 +11 1009.5 982.4
18 15.06 ЮВ 3 50 км в посл. час дождь н/о +11.1 +8.4 83 +9 +9 1009.5 982.3 +14.9 4
19 15.06 Ю 2 50 км н/о +11.4 +8.5 82 +10 +10 1009.7 982.5
20 15.06 ЮЗ 2 50 км н/о +10.7 +6.4 75 +10 +10 1010.3 983.1
21 15.06 ЮЗ 2 50 км н/о +8.5 +5.2 80 +7 +7 1010.6 983.2
22 15.06 ЮВ 1 50 км н/о +5.4 +3.6 88 +4 +4 1011.4 983.6
23 15.06 Ю 3 50 км н/о +8.0 +5.6 85 +6 +6 1011.2 983.7
00 16.06 Ю 2 50 км н/о +8.0 +5.5 84 +6 +6 1011.3 983.8
01 16.06 ЮВ 4 50 км н/о +7.0 +5.4 90 +3 +3 1011.4 983.8
02 16.06 Ю 3 45 км н/о +6.7 +5.6 93 +4 +4 1011.4 983.8
03 16.06 Ю 3 19 км слаб. ливневой дождь н/о +8.2 +6.7 90 +6 +6 1011.1 983.6
04 16.06 ЮВ 4 50 км в посл. час дождь н/о +8.0 +6.4 90 +5 +5 1011.1 983.6
05 16.06 ЮВ 3 50 км н/о +8.5 +6.1 85 +6 +6 1011.2 983.7
06 16.06 ЮВ 3 45 км в посл. час дождь н/о +8.9 +6.9 87 +6 +6 1011.3 983.9 +5.3 0.0
07 16.06 Ю 4 50 км н/о +10.0 +7.7 86 +7 +7 1011.4 984.1
08 16.06 Ю 4 50 км н/о +11.7 +8.5 81 +10 +10 1011.3 984.2
09 16.06 Ю 6 50 км н/о +11.3 +7.1 75 +8 +8 1011.4 984.3
10 16.06 Ю 5 50 км в посл. час дождь н/о +10.4 +8.1 86 +8 +8 1011.9 984.7
11 16.06 Ю 3 50 км н/о +11.8 +8.8 82 +10 +10 1011.5 984.3
12 16.06 ЮЗ 6 50 км н/о +14.4 +8.2 66 +13 +13 1011.0 984.1 0.0
13 16.06 З 7 50 км н/о +15.5 +6.5 55 +14 +14 1010.9 984.1
14 16.06 ЮЗ 5 50 км н/о +15.3 +8.0 62 +14 +14 1010.3 983.5

 

Местоположение метеостанции Варкоп (Великобритания): широта 54.57 долгота -2.42 высота над уровнем моря 227 м.

В архиве по умолчанию представлена погода в Варкопе за последнюю неделю. Архивные данные за месяц целиком и за предыдущие месяцы, начиная с января 2011 года, Вы можете получить, выбрав интересующий диапазон дат из раскрывающегося списка и нажав кнопку "Ввод!".


*Определитесь, кто Вы:
робот инопланетянин человек

Внимание! Время в таблицах - всемирное. Для получения местного времени необходимо прибавить поправку, которая равна 0 ч.

Смотрите также архив погоды в соседних городах и на ближайших метеорологических станциях:

Погода в Грэйт Дан Фелле (Великобритания) (12 км)
Погода в Шапе (Великобритания) (18 км)
Погода в Кесвике (Великобритания) (49 км)
Погода в Карлайле (Великобритания) (53 км)
Погода в Спадедэме (Великобритания) (54 км)
Погода в Альбермарле (Великобритания) (61 км)
Погода в Лееминге (Великобритания) (65 км)
Погода на Острове Уолни (Великобритания) (73 км)
Погода на Мысе Сент-Бис (Великобритания) (76 км)
Погода в Топклиффе (Великобритания) (79 км)

Пояснения к столбцам:

Ветер - указаны скорость ветра в м/с - средняя за 10 мин, порывы в срок и между сроками (в фигурных скобках) и направление, откуда дует ветер: С - северный, СВ - северо-восточный, В - восточный, ЮВ - юго-восточный, Ю - южный, ЮЗ - юго-западный, З - западный, СЗ - северо-западный.
Видимость - горизонтальная дальность видимости в метрах или километрах. При видимости от 1 до 10 км при отсутствии осадков обычно наблюдается дымка, при ухудшении видимости до 1 км и менее - туман. В сухую погоду видимость может ухудшаться дымом, пылью или мглою.
Явления - указаны атмосферные явления, наблюдавшиеся в срок или в последний час перед сроком; фигурными скобками обозначены явления, наблюдавшиеся между сроками (за 1-3 часа до срока); квадратными скобками обозначены град или гололедные отложения с указанием их диаметра в мм.
Облачность - указаны через наклонную черту общая и нижняя облачность в баллах и высота нижней границы облаков в метрах; квадратными скобками обозначены формы облаков: Ci - перистые, Cs - перисто-слоистые, Cc - перисто-кучевые, Ac - высококучевые, As - высокослоистые, Sc - слоисто-кучевые, Ns - слоисто-дождевые, Cu - кучевые, Cb - кучево-дождевые. Подробнее классификацию облаков см. в Атласе облаков (PDF).
T - Температура воздуха - температура, измеренная на высоте 2 м над землей.
Td - Температура точки росы - температура, при понижении до которой содержащийся в воздухе водяной пар достигнет насыщения.
f - Относительная влажность воздуха - влажноcть воздуха, измеренная на высоте 2 м над землей.
Te - Эффективная температура - температура, которую ощущает одетый по сезону человек в тени. Характеристика душности погоды. При расчете учитывается влияние влажности воздуха и скорости ветра на теплоощущения человека.
Tes - Эффективная температура на солнце - температура, которую ощущает человек, с поправкой на солнечный нагрев. Характеристика знойности погоды. Зависит от высоты солнца над горизонтом, облачности и скорости ветра. Ночью, в пасмурную погоду, а также при ветре 12 м/с и более поправка равна нулю.
P - Атмосферное давление - приведенное к уровню моря атмосферное давление.
Po - Атмосферное давление - измеренное на уровне метеостанции атмосферное давление.
Tmin - Минимальная температура - минимум температуры воздуха на высоте 2 м над землей.
Tmax - Максимальная температура - максимум температуры воздуха на высоте 2 м над землей.
R - Количество осадков - Количество выпавших осадков за период времени, мм. При наведении курсора мыши на число - период времени, за который выпало указанное количество осадков.
R24 - Количество осадков - Количество выпавших осадков за 24 часа, мм.
S - Снежный покров - Высота снежного покрова, см. При наведении курсора мыши на число - состояние снежного покрова и степень покрытия местности в баллах.